| time (UTC) | temp C | wind direction | speed KPH | gust KPH | rain 1hr cm | rain 24hr cm | rain mn cm | humidity % | barometer mb |
| 20260508000047 | 14 | 0 | 0.0 | 0.0 | 0.00 | 0.36 | 0.36 | 45 | 1007.9 |
| 20260507234544 | 15 | 0 | 0.0 | 0.0 | 0.00 | 0.36 | 0.36 | 43 | 1008.1 |
| 20260507233047 | 15 | 0 | 0.0 | 0.0 | 0.00 | 0.36 | 0.36 | 43 | 1007.8 |
| 20260507231543 | 16 | 0 | 0.0 | 1.6 | 0.00 | 0.36 | 0.36 | 41 | 1007.7 |
| 20260507230041 | 16 | 0 | 0.0 | 3.2 | 0.00 | 0.36 | 0.36 | 40 | 1007.7 |
| 20260507224547 | 17 | 0 | 0.0 | 1.6 | 0.00 | 0.36 | 0.36 | 39 | 1007.6 |
| 20260507223046 | 17 | 0 | 0.0 | 4.8 | 0.00 | 0.36 | 0.36 | 40 | 1007.6 |
| 20260507221543 | 17 | 259 | 0.0 | 6.4 | 0.00 | 0.36 | 0.36 | 39 | 1007.6 |
| 20260507220052 | 17 | 265 | 3.2 | 17.7 | 0.00 | 0.36 | 0.36 | 38 | 1007.6 |
| 20260507214552 | 17 | 0 | 1.6 | 9.7 | 0.00 | 0.36 | 0.36 | 36 | 1007.5 |
| 20260507213056 | 17 | 0 | 0.0 | 8.0 | 0.00 | 0.36 | 0.36 | 39 | 1007.6 |
| 20260507211544 | 18 | 0 | 0.0 | 6.4 | 0.00 | 0.36 | 0.36 | 39 | 1007.4 |
| 20260507210050 | 17 | 253 | 4.8 | 20.9 | 0.00 | 0.36 | 0.36 | 39 | 1007.3 |
| 20260507204555 | 16 | 0 | 0.0 | 9.7 | 0.00 | 0.36 | 0.36 | 40 | 1007.3 |
| 20260507203048 | 16 | 0 | 0.0 | 6.4 | 0.00 | 0.36 | 0.36 | 41 | 1007.5 |
| 20260507201550 | 17 | 298 | 1.6 | 8.0 | 0.00 | 0.36 | 0.36 | 41 | 1007.3 |
| 20260507200051 | 17 | 273 | 1.6 | 9.7 | 0.00 | 0.36 | 0.36 | 40 | 1007.4 |
| 20260507194553 | 17 | 0 | 0.0 | 12.9 | 0.00 | 0.56 | 0.36 | 39 | 1007.4 |
| 20260507193051 | 17 | 263 | 0.0 | 16.1 | 0.00 | 0.56 | 0.36 | 42 | 1007.6 |
| 20260507191608 | 17 | 0 | 1.6 | 11.3 | 0.00 | 0.56 | 0.36 | 40 | 1007.9 |
| 20260507190047 | 17 | 286 | 6.4 | 24.1 | 0.00 | 0.56 | 0.36 | 42 | 1008.0 |
| 20260507184557 | 16 | 0 | 1.6 | 17.7 | 0.00 | 0.58 | 0.36 | 43 | 1008.1 |
| 20260507183049 | 16 | 0 | 3.2 | 17.7 | 0.00 | 0.58 | 0.36 | 42 | 1008.3 |
| 20260507181546 | 16 | 0 | 0.0 | 17.7 | 0.00 | 0.58 | 0.36 | 42 | 1008.4 |
| 20260507180046 | 16 | 0 | 3.2 | 16.1 | 0.00 | 0.58 | 0.36 | 43 | 1008.5 |
| 20260507174551 | 16 | 0 | 0.0 | 14.5 | 0.00 | 0.61 | 0.36 | 43 | 1008.5 |
| 20260507173051 | 16 | 272 | 6.4 | 19.3 | 0.00 | 0.61 | 0.36 | 42 | 1008.9 |
| 20260507171552 | 16 | 0 | 1.6 | 6.4 | 0.00 | 0.61 | 0.36 | 43 | 1009.0 |
| 20260507170050 | 16 | 24 | 0.0 | 16.1 | 0.00 | 0.61 | 0.36 | 41 | 1009.3 |
| 20260507164605 | 15 | 0 | 0.0 | 6.4 | 0.00 | 0.64 | 0.36 | 43 | 1009.5 |
| 20260507163047 | 15 | 338 | 0.0 | 11.3 | 0.00 | 0.64 | 0.36 | 44 | 1009.6 |
| 20260507161554 | 15 | 0 | 0.0 | 8.0 | 0.00 | 0.64 | 0.36 | 45 | 1009.8 |
| 20260507160052 | 15 | 0 | 0.0 | 8.0 | 0.00 | 0.64 | 0.36 | 47 | 1009.9 |
| 20260507154554 | 15 | 22 | 0.0 | 9.7 | 0.00 | 0.64 | 0.36 | 47 | 1010.1 |
| 20260507153046 | 15 | 0 | 1.6 | 6.4 | 0.00 | 0.64 | 0.36 | 46 | 1010.3 |
| 20260507151544 | 14 | 0 | 0.0 | 6.4 | 0.00 | 0.64 | 0.36 | 52 | 1010.4 |
| 20260507150049 | 14 | 0 | 3.2 | 9.7 | 0.00 | 0.64 | 0.36 | 49 | 1010.5 |
| 20260507144547 | 14 | 336 | 0.0 | 4.8 | 0.00 | 0.64 | 0.36 | 56 | 1010.5 |
| 20260507143104 | 14 | 0 | 0.0 | 6.4 | 0.00 | 0.64 | 0.36 | 58 | 1010.5 |
| 20260507141605 | 13 | 0 | 0.0 | 6.4 | 0.00 | 0.64 | 0.36 | 62 | 1010.4 |
| 20260507140047 | 13 | 0 | 0.0 | 6.4 | 0.00 | 0.64 | 0.36 | 62 | 1010.4 |
| 20260507134544 | 13 | 0 | 0.0 | 4.8 | 0.00 | 0.64 | 0.36 | 67 | 1010.4 |
| 20260507133042 | 12 | 0 | 0.0 | 8.0 | 0.00 | 0.64 | 0.36 | 71 | 1010.4 |
| 20260507131549 | 12 | 233 | 0.0 | 14.5 | 0.00 | 0.64 | 0.36 | 76 | 1010.4 |
| 20260507130047 | 11 | 0 | 0.0 | 3.2 | 0.00 | 0.64 | 0.36 | 77 | 1010.4 |
| 20260507124547 | 11 | 0 | 0.0 | 4.8 | 0.00 | 0.64 | 0.36 | 79 | 1010.4 |
| 20260507123102 | 11 | 0 | 0.0 | 16.1 | 0.00 | 0.64 | 0.36 | 81 | 1010.4 |
| 20260507121549 | 10 | 0 | 0.0 | 1.6 | 0.00 | 0.64 | 0.36 | 88 | 1010.3 |
| 20260507120048 | 9 | 0 | 0.0 | 0.0 | 0.00 | 0.64 | 0.36 | 89 | 1010.4 |
| 20260507114552 | 9 | 0 | 0.0 | 0.0 | 0.00 | 0.64 | 0.36 | 89 | 1010.3 |
| 20260507113047 | 8 | 0 | 0.0 | 1.6 | 0.00 | 0.64 | 0.36 | 90 | 1010.0 |
| 20260507111546 | 8 | 0 | 0.0 | 0.0 | 0.00 | 0.64 | 0.36 | 92 | 1009.8 |
| 20260507110049 | 8 | 0 | 0.0 | 0.0 | 0.00 | 0.64 | 0.36 | 92 | 1009.8 |
| 20260507104551 | 8 | 0 | 0.0 | 0.0 | 0.00 | 0.64 | 0.36 | 93 | 1009.6 |
| 20260507103046 | 8 | 0 | 0.0 | 0.0 | 0.00 | 0.64 | 0.36 | 94 | 1009.5 |
| 20260507101547 | 8 | 0 | 0.0 | 0.0 | 0.00 | 0.64 | 0.36 | 94 | 1009.1 |
| 20260507100054 | 8 | 0 | 0.0 | 1.6 | 0.00 | 0.64 | 0.36 | 95 | 1009.1 |
| 20260507094550 | 8 | 0 | 0.0 | 0.0 | 0.00 | 0.64 | 0.36 | 95 | 1009.3 |
| 20260507093048 | 8 | 0 | 0.0 | 0.0 | 0.00 | 0.64 | 0.36 | 95 | 1008.9 |
| 20260507091551 | 8 | 0 | 0.0 | 0.0 | 0.00 | 0.64 | 0.36 | 96 | 1008.8 |
| 20260507090058 | 8 | 0 | 0.0 | 0.0 | 0.03 | 0.64 | 0.36 | 96 | 1008.9 |
| 20260507084554 | 8 | 0 | 0.0 | 0.0 | 0.03 | 0.64 | 0.36 | 96 | 1008.9 |
| 20260507083044 | 9 | 0 | 0.0 | 0.0 | 0.08 | 0.64 | 0.36 | 96 | 1009.0 |
| 20260507081554 | 9 | 0 | 0.0 | 0.0 | 0.08 | 0.64 | 0.36 | 96 | 1009.1 |
| 20260507080111 | 9 | 0 | 0.0 | 0.0 | 0.10 | 0.61 | 0.33 | 95 | 1008.9 |
| 20260507074547 | 9 | 0 | 0.0 | 0.0 | 0.15 | 0.61 | 0.33 | 95 | 1009.2 |
| 20260507073050 | 10 | 0 | 0.0 | 0.0 | 0.15 | 0.56 | 0.28 | 95 | 1009.2 |
| 20260507071549 | 10 | 0 | 0.0 | 0.0 | 0.20 | 0.56 | 0.28 | 95 | 1009.1 |
| 20260507070054 | 10 | 0 | 0.0 | 0.0 | 0.20 | 0.51 | 0.23 | 94 | 1009.0 |
| 20260507064619 | 10 | 0 | 0.0 | 0.0 | 0.15 | 0.46 | 0.18 | 93 | 1009.1 |
| 20260507063052 | 10 | 0 | 0.0 | 0.0 | 0.13 | 0.41 | 0.13 | 92 | 1008.8 |
| 20260507061544 | 11 | 0 | 0.0 | 0.0 | 0.08 | 0.36 | 0.08 | 91 | 1008.9 |
| 20260507060107 | 11 | 0 | 0.0 | 0.0 | 0.03 | 0.30 | 0.03 | 89 | 1009.0 |
| 20260507054552 | 11 | 0 | 0.0 | 0.0 | 0.03 | 0.30 | 0.03 | 86 | 1008.5 |
| 20260507053041 | 12 | 0 | 0.0 | 0.0 | 0.00 | 0.28 | 0.00 | 84 | 1008.3 |
| 20260507051601 | 12 | 0 | 0.0 | 0.0 | 0.00 | 0.28 | 0.00 | 83 | 1008.5 |
| 20260507050049 | 12 | 0 | 0.0 | 0.0 | 0.00 | 0.28 | 0.00 | 83 | 1008.8 |
| 20260507044550 | 12 | 0 | 0.0 | 0.0 | 0.00 | 0.28 | 0.00 | 82 | 1008.5 |
| 20260507043047 | 12 | 0 | 0.0 | 0.0 | 0.00 | 0.28 | 0.00 | 83 | 1008.6 |
| 20260507041547 | 12 | 0 | 0.0 | 0.0 | 0.00 | 0.28 | 0.00 | 85 | 1008.9 |
| 20260507040051 | 13 | 0 | 0.0 | 0.0 | 0.00 | 0.28 | 0.00 | 84 | 1008.7 |
| 20260507034551 | 13 | 271 | 0.0 | 4.8 | 0.00 | 0.28 | 0.28 | 84 | 1008.5 |
| 20260507033050 | 13 | 0 | 0.0 | 3.2 | 0.00 | 0.28 | 0.28 | 85 | 1008.3 |
| 20260507031545 | 13 | 0 | 0.0 | 1.6 | 0.00 | 0.28 | 0.28 | 86 | 1008.4 |
| 20260507030052 | 13 | 0 | 0.0 | 1.6 | 0.00 | 0.28 | 0.28 | 87 | 1008.3 |
| 20260507024550 | 13 | 0 | 0.0 | 0.0 | 0.00 | 0.28 | 0.28 | 88 | 1008.7 |
| 20260507023050 | 13 | 0 | 0.0 | 0.0 | 0.00 | 0.28 | 0.28 | 89 | 1008.7 |
| 20260507021549 | 14 | 0 | 0.0 | 0.0 | 0.00 | 0.28 | 0.28 | 90 | 1008.5 |
| 20260507020101 | 14 | 0 | 0.0 | 0.0 | 0.00 | 0.28 | 0.28 | 91 | 1008.6 |
| 20260507014551 | 14 | 0 | 0.0 | 0.0 | 0.00 | 0.28 | 0.28 | 90 | 1008.5 |
| 20260507013046 | 15 | 0 | 0.0 | 20.9 | 0.00 | 0.28 | 0.28 | 90 | 1008.2 |
| 20260507011551 | 16 | 0 | 0.0 | 8.0 | 0.00 | 0.28 | 0.28 | 94 | 1008.0 |
| 20260507010100 | 16 | 0 | 0.0 | 1.6 | 0.00 | 0.28 | 0.28 | 94 | 1007.3 |
| 20260507004549 | 16 | 0 | 0.0 | 4.8 | 0.00 | 0.28 | 0.28 | 94 | 1007.1 |
| 20260507003055 | 16 | 0 | 0.0 | 1.6 | 0.00 | 0.28 | 0.28 | 94 | 1007.0 |
| 20260507001551 | 16 | 0 | 0.0 | 0.0 | 0.00 | 0.28 | 0.28 | 94 | 1007.2 |